{"data":{"norad_id":67355,"epoch":"2026-09-19T21:53:52.383840Z","epoch_age_seconds":126053,"freshness":"FRESH","line1":"1 67355U 26003X   26262.91241185  .00011620  00000+0  43091-3 0  9995","line2":"2 67355  43.0012 210.5579 0001161 265.2241  94.8478 15.27594653 38523","mean_motion":15.27594653,"eccentricity":0.0001161,"inclination_deg":43.0012,"raan_deg":210.5579,"arg_perigee_deg":265.2241,"mean_anomaly_deg":94.8478,"bstar":0.00043091,"rev_number":3852,"period_min":94.265844487739,"perigee_km":482.20864142524,"apogee_km":483.80179864874,"semimajor_km":6861.142220037,"source":"CELESTRAK","updated_at":"2026-09-20T09:00:43.516197Z"}}